Time,TemperatureF,DewpointF,PressureIn,WindDirection,WindDirectionDegrees,WindSpeedMPH,WindSpeedGustMPH,Humidity,HourlyPrecipIn,Conditions,Clouds,dailyrainin,SoftwareType,DateUTC
2013-07-24 00:01:00,83.0,77.0,30.00,South,183,0.0,-999.0,81,-99.99,,,-99.99,,2013-07-24 04:01:00,
2013-07-24 00:43:00,82.0,76.0,29.99,South,183,0.0,-999.0,82,-99.99,,,-99.99,,2013-07-24 04:43:00,
2013-07-24 00:52:00,82.0,76.0,29.99,South,183,0.0,-999.0,82,-99.99,,,-99.99,,2013-07-24 04:52:00,
2013-07-24 01:02:00,82.0,76.0,29.99,South,183,0.0,-999.0,82,-99.99,,,-99.99,,2013-07-24 05:02:00,
2013-07-24 01:22:00,82.0,76.0,29.99,South,182,0.0,-999.0,82,-99.99,,,-99.99,,2013-07-24 05:22:00,
2013-07-24 01:33:00,82.0,76.0,29.99,South,183,0.0,-999.0,82,-99.99,,,-99.99,,2013-07-24 05:33:00,
2013-07-24 01:43:00,82.0,76.0,29.98,South,182,0.0,-999.0,83,-99.99,,,-99.99,,2013-07-24 05:43:00,
2013-07-24 01:52:00,82.0,76.0,29.98,South,182,0.0,-999.0,83,-99.99,,,-99.99,,2013-07-24 05:52:00,
2013-07-24 02:01:00,82.0,76.0,29.97,South,182,0.0,-999.0,83,-99.99,,,-99.99,,2013-07-24 06:01:00,
2013-07-24 02:12:00,82.0,76.0,29.96,South,182,0.0,-999.0,83,-99.99,,,-99.99,,2013-07-24 06:12:00,
2013-07-24 02:24:00,82.0,76.0,29.96,South,183,0.0,-999.0,83,-99.99,,,-99.99,,2013-07-24 06:24:00,
2013-07-24 02:34:00,82.0,77.0,29.96,South,182,0.0,-999.0,84,-99.99,,,-99.99,,2013-07-24 06:34:00,
2013-07-24 02:43:00,82.0,77.0,29.95,South,183,0.0,-999.0,84,-99.99,,,-99.99,,2013-07-24 06:43:00,
2013-07-24 02:53:00,82.0,77.0,29.95,South,183,0.0,-999.0,84,-99.99,,,-99.99,,2013-07-24 06:53:00,
2013-07-24 03:02:00,81.0,76.0,29.95,South,182,0.0,-999.0,84,-99.99,,,-99.99,,2013-07-24 07:02:00,
2013-07-24 03:12:00,81.0,76.0,29.94,South,183,0.0,-999.0,84,-99.99,,,-99.99,,2013-07-24 07:12:00,
2013-07-24 03:22:00,82.0,77.0,29.94,South,182,0.0,-999.0,84,-99.99,,,-99.99,,2013-07-24 07:22:00,
2013-07-24 03:32:00,82.0,77.0,29.94,South,182,0.0,-999.0,84,-99.99,,,-99.99,,2013-07-24 07:32:00,
2013-07-24 03:43:00,82.0,77.0,29.94,South,182,0.0,-999.0,85,-99.99,,,-99.99,,2013-07-24 07:43:00,
2013-07-24 03:52:00,82.0,77.0,29.93,South,182,0.0,-999.0,85,-99.99,,,-99.99,,2013-07-24 07:52:00,
2013-07-24 04:02:00,82.0,77.0,29.93,South,182,0.0,-999.0,85,-99.99,,,-99.99,,2013-07-24 08:02:00,
2013-07-24 04:12:00,82.0,77.0,29.93,South,182,0.0,-999.0,85,-99.99,,,-99.99,,2013-07-24 08:12:00,
2013-07-24 04:22:00,81.0,76.0,29.93,South,182,0.0,-999.0,84,-99.99,,,-99.99,,2013-07-24 08:22:00,
2013-07-24 04:32:00,81.0,76.0,29.93,South,182,0.0,-999.0,84,-99.99,,,-99.99,,2013-07-24 08:32:00,
2013-07-24 04:43:00,81.0,76.0,29.93,South,182,0.0,-999.0,85,-99.99,,,-99.99,,2013-07-24 08:43:00,
2013-07-24 04:52:00,81.0,76.0,29.92,South,182,0.0,-999.0,85,-99.99,,,-99.99,,2013-07-24 08:52:00,
2013-07-24 05:02:00,81.0,76.0,29.92,South,182,0.0,-999.0,85,-99.99,,,-99.99,,2013-07-24 09:02:00,
2013-07-24 05:12:00,81.0,76.0,29.92,South,182,0.0,-999.0,85,-99.99,,,-99.99,,2013-07-24 09:12:00,
2013-07-24 05:32:00,81.0,76.0,29.92,South,182,0.0,-999.0,85,-99.99,,,-99.99,,2013-07-24 09:32:00,
2013-07-24 05:43:00,81.0,76.0,29.93,South,182,0.0,-999.0,85,-99.99,,,-99.99,,2013-07-24 09:43:00,
2013-07-24 05:53:00,81.0,76.0,29.93,South,182,0.0,-999.0,85,-99.99,,,-99.99,,2013-07-24 09:53:00,
2013-07-24 06:02:00,81.0,76.0,29.94,South,182,0.0,-999.0,85,-99.99,,,-99.99,,2013-07-24 10:02:00,
2013-07-24 06:12:00,81.0,76.0,29.95,South,182,0.0,-999.0,84,-99.99,,,-99.99,,2013-07-24 10:12:00,
2013-07-24 06:53:00,81.0,75.0,29.95,South,182,0.0,-999.0,83,-99.99,,,-99.99,,2013-07-24 10:53:00,
2013-07-24 07:02:00,81.0,75.0,29.95,South,182,0.0,-999.0,83,-99.99,,,-99.99,,2013-07-24 11:02:00,
2013-07-24 07:12:00,81.0,75.0,29.94,South,182,0.0,-999.0,83,-99.99,,,-99.99,,2013-07-24 11:12:00,
2013-07-24 07:22:00,81.0,75.0,29.95,South,182,0.0,-999.0,83,-99.99,,,-99.99,,2013-07-24 11:22:00,
2013-07-24 07:32:00,81.0,75.0,29.95,South,182,0.0,-999.0,83,-99.99,,,-99.99,,2013-07-24 11:32:00,
2013-07-24 07:43:00,81.0,75.0,29.95,South,182,0.0,-999.0,83,-99.99,,,-99.99,,2013-07-24 11:43:00,
2013-07-24 07:52:00,81.0,76.0,29.95,South,182,0.0,-999.0,84,-99.99,,,-99.99,,2013-07-24 11:52:00,
2013-07-24 08:42:00,83.0,76.0,29.95,South,183,0.0,-999.0,79,-99.99,,,-99.99,,2013-07-24 12:42:00,
2013-07-24 08:52:00,84.0,77.0,29.95,South,175,0.0,-999.0,79,-99.99,,,-99.99,,2013-07-24 12:52:00,
2013-07-24 09:02:00,84.0,77.0,29.96,South,182,0.0,-999.0,79,-99.99,,,-99.99,,2013-07-24 13:02:00,
2013-07-24 09:43:00,84.0,76.0,29.96,South,178,0.0,-999.0,78,-99.99,,,-99.99,,2013-07-24 13:43:00,
2013-07-24 09:53:00,84.0,76.0,29.96,South,182,0.0,-999.0,78,-99.99,,,-99.99,,2013-07-24 13:53:00,
2013-07-24 10:02:00,85.0,77.0,29.96,South,182,0.0,-999.0,77,-99.99,,,-99.99,,2013-07-24 14:02:00,
2013-07-24 10:12:00,84.0,76.0,29.96,South,184,0.0,-999.0,77,-99.99,,,-99.99,,2013-07-24 14:12:00,
2013-07-24 10:22:00,84.0,76.0,29.96,South,184,0.0,-999.0,78,-99.99,,,-99.99,,2013-07-24 14:22:00,
2013-07-24 10:32:00,85.0,77.0,29.97,South,184,0.0,-999.0,77,-99.99,,,-99.99,,2013-07-24 14:32:00,
2013-07-24 10:43:00,85.0,77.0,29.97,South,184,0.0,-999.0,76,-99.99,,,-99.99,,2013-07-24 14:43:00,
2013-07-24 10:55:00,85.0,77.0,29.97,South,184,0.0,-999.0,77,-99.99,,,-99.99,,2013-07-24 14:55:00,
2013-07-24 11:02:00,84.0,76.0,29.98,South,185,0.0,-999.0,77,-99.99,,,-99.99,,2013-07-24 15:02:00,
2013-07-24 11:12:00,84.0,76.0,29.98,South,191,0.0,-999.0,76,-99.99,,,-99.99,,2013-07-24 15:12:00,
2013-07-24 11:22:00,84.0,76.0,29.98,South,183,0.0,-999.0,78,-99.99,,,-99.99,,2013-07-24 15:22:00,
2013-07-24 11:33:00,85.0,77.0,29.98,South,190,0.0,-999.0,77,-99.99,,,-99.99,,2013-07-24 15:33:00,
2013-07-24 11:43:00,85.0,77.0,29.98,SSW,192,0.0,-999.0,76,-99.99,,,-99.99,,2013-07-24 15:43:00,
2013-07-24 11:52:00,85.0,76.0,29.98,SSW,212,1.0,-999.0,74,-99.99,,,-99.99,,2013-07-24 15:52:00,
2013-07-24 12:02:00,85.0,77.0,29.98,West,264,1.0,-999.0,76,-99.99,,,-99.99,,2013-07-24 16:02:00,
2013-07-24 12:12:00,85.0,76.0,29.98,West,266,0.0,-999.0,75,-99.99,,,-99.99,,2013-07-24 16:12:00,
2013-07-24 12:22:00,85.0,77.0,29.98,WNW,286,0.0,-999.0,76,-99.99,,,-99.99,,2013-07-24 16:22:00,
2013-07-24 12:32:00,86.0,77.0,29.98,WNW,285,0.0,-999.0,75,-99.99,,,-99.99,,2013-07-24 16:32:00,
2013-07-24 12:43:00,86.0,76.0,29.98,West,274,1.0,-999.0,72,-99.99,,,-99.99,,2013-07-24 16:43:00,
2013-07-24 12:53:00,87.0,77.0,29.98,West,273,0.0,-999.0,72,-99.99,,,-99.99,,2013-07-24 16:53:00,
2013-07-24 13:02:00,86.0,76.0,29.98,WSW,252,0.0,-999.0,72,-99.99,,,-99.99,,2013-07-24 17:02:00,
2013-07-24 13:12:00,87.0,77.0,29.98,West,259,0.0,-999.0,73,-99.99,,,-99.99,,2013-07-24 17:12:00,
2013-07-24 13:22:00,87.0,77.0,29.98,West,261,0.0,-999.0,73,-99.99,,,-99.99,,2013-07-24 17:22:00,
2013-07-24 13:33:00,87.0,76.0,29.98,West,265,0.0,-999.0,71,-99.99,,,-99.99,,2013-07-24 17:33:00,
2013-07-24 13:43:00,88.0,77.0,29.97,West,262,0.0,-999.0,70,-99.99,,,-99.99,,2013-07-24 17:43:00,
2013-07-24 13:53:00,86.0,77.0,29.97,WSW,237,3.0,-999.0,74,-99.99,,,-99.99,,2013-07-24 17:53:00,
2013-07-24 14:02:00,86.0,76.0,29.97,SW,220,1.0,-999.0,73,-99.99,,,-99.99,,2013-07-24 18:02:00,
2013-07-24 14:12:00,86.0,77.0,29.97,SW,227,3.0,-999.0,75,-99.99,,,-99.99,,2013-07-24 18:12:00,
2013-07-24 14:22:00,85.0,77.0,29.96,South,173,2.0,-999.0,76,-99.99,,,-99.99,,2013-07-24 18:22:00,
2013-07-24 14:33:00,86.0,78.0,29.96,South,180,3.0,-999.0,76,-99.99,,,-99.99,,2013-07-24 18:33:00,
2013-07-24 14:43:00,86.0,77.0,29.97,SSW,196,2.0,-999.0,74,-99.99,,,-99.99,,2013-07-24 18:43:00,
2013-07-24 14:52:00,86.0,77.0,29.96,South,190,4.0,-999.0,75,-99.99,,,-99.99,,2013-07-24 18:52:00,
2013-07-24 15:02:00,86.0,77.0,29.96,South,185,4.0,-999.0,75,-99.99,,,-99.99,,2013-07-24 19:02:00,
2013-07-24 15:12:00,86.0,76.0,29.95,South,183,1.0,-999.0,73,-99.99,,,-99.99,,2013-07-24 19:12:00,
2013-07-24 15:43:00,86.0,77.0,29.95,SW,214,4.0,-999.0,74,-99.99,,,-99.99,,2013-07-24 19:43:00,
2013-07-24 15:53:00,86.0,77.0,29.94,WSW,252,1.0,-999.0,74,-99.99,,,-99.99,,2013-07-24 19:53:00,
2013-07-24 16:02:00,87.0,77.0,29.94,West,260,3.0,-999.0,73,-99.99,,,-99.99,,2013-07-24 20:02:00,
2013-07-24 16:13:00,87.0,77.0,29.94,West,271,2.0,-999.0,73,-99.99,,,-99.99,,2013-07-24 20:13:00,
2013-07-24 16:23:00,87.0,78.0,29.93,SW,230,3.0,-999.0,74,-99.99,,,-99.99,,2013-07-24 20:23:00,
2013-07-24 16:32:00,87.0,77.0,29.93,SSW,205,4.0,-999.0,73,-99.99,,,-99.99,,2013-07-24 20:32:00,
2013-07-24 16:43:00,87.0,77.0,29.93,South,189,3.0,-999.0,73,-99.99,,,-99.99,,2013-07-24 20:43:00,
2013-07-24 16:52:00,87.0,78.0,29.92,West,263,4.0,-999.0,75,-99.99,,,-99.99,,2013-07-24 20:52:00,
2013-07-24 17:03:00,87.0,78.0,29.92,West,264,2.0,-999.0,74,-99.99,,,-99.99,,2013-07-24 21:03:00,
2013-07-24 17:22:00,87.0,78.0,29.92,SW,225,4.0,-999.0,74,-99.99,,,-99.99,,2013-07-24 21:22:00,
2013-07-24 17:32:00,87.0,78.0,29.91,West,265,5.0,-999.0,74,-99.99,,,-99.99,,2013-07-24 21:32:00,
2013-07-24 17:44:00,87.0,78.0,29.92,West,260,3.0,-999.0,75,-99.99,,,-99.99,,2013-07-24 21:44:00,
2013-07-24 17:52:00,86.0,77.0,29.92,West,261,4.0,-999.0,74,-99.99,,,-99.99,,2013-07-24 21:52:00,
2013-07-24 18:12:00,87.0,78.0,29.91,WSW,258,2.0,-999.0,74,-99.99,,,-99.99,,2013-07-24 22:12:00,
2013-07-24 18:22:00,86.0,77.0,29.91,West,269,6.0,-999.0,75,-99.99,,,-99.99,,2013-07-24 22:22:00,
2013-07-24 18:32:00,86.0,78.0,29.91,WNW,293,4.0,-999.0,76,-99.99,,,-99.99,,2013-07-24 22:32:00,
2013-07-24 18:43:00,86.0,77.0,29.91,WSW,248,5.0,-999.0,75,-99.99,,,-99.99,,2013-07-24 22:43:00,
2013-07-24 18:53:00,86.0,78.0,29.92,West,263,2.0,-999.0,76,-99.99,,,-99.99,,2013-07-24 22:53:00,
2013-07-24 19:02:00,86.0,77.0,29.91,West,259,5.0,-999.0,75,-99.99,,,-99.99,,2013-07-24 23:02:00,
2013-07-24 19:12:00,86.0,78.0,29.92,West,267,3.0,-999.0,76,-99.99,,,-99.99,,2013-07-24 23:12:00,
2013-07-24 19:22:00,86.0,77.0,29.92,West,281,5.0,-999.0,75,-99.99,,,-99.99,,2013-07-24 23:22:00,
2013-07-24 19:32:00,86.0,77.0,29.92,West,273,3.0,-999.0,75,-99.99,,,-99.99,,2013-07-24 23:32:00,
2013-07-24 19:43:00,86.0,77.0,29.92,West,275,1.0,-999.0,75,-99.99,,,-99.99,,2013-07-24 23:43:00,
2013-07-24 19:52:00,86.0,77.0,29.92,West,278,3.0,-999.0,75,-99.99,,,-99.99,,2013-07-24 23:52:00,
2013-07-24 20:02:00,86.0,78.0,29.93,West,281,3.0,-999.0,76,-99.99,,,-99.99,,2013-07-25 00:02:00,
2013-07-24 20:22:00,85.0,77.0,29.93,West,281,3.0,-999.0,77,-99.99,,,-99.99,,2013-07-25 00:22:00,
2013-07-24 20:43:00,85.0,77.0,29.93,West,273,6.0,-999.0,76,-99.99,,,-99.99,,2013-07-25 00:43:00,
2013-07-24 20:53:00,85.0,77.0,29.93,West,275,4.0,-999.0,76,-99.99,,,-99.99,,2013-07-25 00:53:00,
2013-07-24 21:02:00,85.0,77.0,29.93,WSW,244,6.0,-999.0,77,-99.99,,,-99.99,,2013-07-25 01:02:00,
2013-07-24 21:12:00,85.0,77.0,29.93,West,274,5.0,-999.0,77,-99.99,,,-99.99,,2013-07-25 01:12:00,
2013-07-24 21:22:00,84.0,76.0,29.93,West,281,4.0,-999.0,77,-99.99,,,-99.99,,2013-07-25 01:22:00,
2013-07-24 21:32:00,84.0,76.0,29.93,West,281,4.0,-999.0,77,-99.99,,,-99.99,,2013-07-25 01:32:00,
2013-07-24 21:53:00,84.0,76.0,29.94,WNW,284,1.0,-999.0,78,-99.99,,,-99.99,,2013-07-25 01:53:00,
2013-07-24 22:02:00,84.0,76.0,29.94,West,269,1.0,-999.0,77,-99.99,,,-99.99,,2013-07-25 02:02:00,
2013-07-24 22:22:00,84.0,76.0,29.95,West,275,1.0,-999.0,78,-99.99,,,-99.99,,2013-07-25 02:22:00,
2013-07-24 22:33:00,84.0,76.0,29.95,West,275,0.0,-999.0,78,-99.99,,,-99.99,,2013-07-25 02:33:00,
2013-07-24 23:52:00,84.0,76.0,29.96,West,275,0.0,-999.0,78,-99.99,,,-99.99,,2013-07-25 03:52:00,